SP8NFE-1 Weather Reports


Display with metric or nautical units.
time (UTC)temp
F
wind
direction
speed
MPH
gust
MPH
rain 1hr
in
rain 24hr
in
rain mn
in
humidity
%
barometer
mb
20260902175705 62 180 0.0 4.0 0.00 0.01 0.00 95
20260902175205 61 180 0.0 4.0 0.00 0.01 0.00 91
20260902174705 61 180 0.0 0.0 0.00 0.01 0.00 94
20260902174205 61 180 0.0 0.0 0.00 0.01 0.00 95
20260902173705 61 180 0.0 0.0 0.00 0.01 0.00 94
20260902173205 61 180 0.0 0.0 0.00 0.01 0.00 94
20260902172705 61 180 0.0 0.0 0.00 0.01 0.00 94
20260902172205 62 180 0.0 0.0 0.00 0.01 0.00 92
20260902171705 62 180 0.0 0.0 0.00 0.01 0.00 90
20260902171205 62 180 0.0 0.0 0.00 0.01 0.00 88
20260902170705 63 180 0.0 0.0 0.00 0.01 0.00 87
20260902170205 63 180 0.0 0.0 0.00 0.01 0.00 85
20260902165705 64 180 0.0 0.0 0.00 0.01 0.00 83
20260902165205 65 180 0.0 0.0 0.00 0.01 0.00 79
20260902164705 65 180 0.0 0.0 0.00 0.01 0.00 76
20260902164205 66 180 0.0 0.0 0.00 0.01 0.00 68
20260902163705 67 180 0.0 0.0 0.00 0.01 0.00 66
20260902163206 68 180 0.0 0.0 0.00 0.01 0.00 63
20260902162705 68 180 0.0 4.0 0.00 0.01 0.00 62
20260902162205 68 180 0.0 4.0 0.00 0.01 0.00 60
20260902161705 69 180 0.0 2.0 0.00 0.01 0.00 59
20260902161205 69 180 0.0 3.0 0.00 0.01 0.00 59
20260902160715 70 180 0.0 6.0 0.00 0.01 0.00 58
20260902160206 70 180 0.0 2.0 0.00 0.01 0.00 57
20260902155706 70 180 0.0 7.0 0.00 0.01 0.00 55
20260902155206 72 180 3.0 9.0 0.00 0.01 0.00 53
20260902154706 73 180 0.0 0.0 0.00 0.01 0.00 53
20260902154206 74 180 0.0 1.0 0.00 0.01 0.00 50
20260902153206 74 180 2.0 3.0 0.00 0.01 0.00 47
20260902152706 74 180 0.0 0.0 0.00 0.01 0.00 45
20260902152206 74 180 0.0 0.0 0.00 0.01 0.00 48
20260902151706 74 180 0.0 3.0 0.00 0.01 0.00 46
20260902151206 74 180 2.0 4.0 0.00 0.01 0.00 48
20260902150706 74 180 1.0 4.0 0.00 0.01 0.00 47
20260902150206 74 180 0.0 3.0 0.00 0.01 0.00 45
20260902145706 75 180 1.0 5.0 0.00 0.01 0.00 44
20260902145206 75 180 2.0 4.0 0.00 0.01 0.00 44
20260902144706 75 180 0.0 2.0 0.00 0.01 0.00 45
20260902144207 76 180 0.0 3.0 0.00 0.01 0.00 45
20260902143706 75 180 3.0 3.0 0.00 0.01 0.00 46
20260902143206 75 180 0.0 4.0 0.00 0.01 0.00 44
20260902142706 75 180 0.0 5.0 0.00 0.01 0.00 43
20260902142206 75 180 1.0 5.0 0.00 0.01 0.00 100
20260902141706 76 180 1.0 3.0 0.00 0.01 0.00 44
20260902141206 76 180 0.0 4.0 0.00 0.01 0.00 43
20260902140706 76 180 1.0 2.0 0.00 0.01 0.00 44
20260902140206 75 180 1.0 2.0 0.00 0.01 0.00 43
20260902135706 75 180 0.0 5.0 0.00 0.01 0.00 45
20260902135206 75 180 1.0 3.0 0.00 0.01 0.00 44
20260902134706 75 180 0.0 3.0 0.00 0.01 0.00 46
20260902134206 75 180 0.0 6.0 0.00 0.01 0.00 44
20260902133706 75 180 0.0 5.0 0.00 0.01 0.00 44
20260902133206 75 180 0.0 4.0 0.00 0.01 0.00 100
20260902132706 74 180 0.0 3.0 0.00 0.01 0.00 44
20260902132206 74 180 3.0 3.0 0.00 0.01 0.00 45
20260902131706 73 180 0.0 4.0 0.00 0.01 0.00 49
20260902131206 73 180 0.0 5.0 0.00 0.01 0.00 47
20260902130706 72 180 0.0 5.0 0.00 0.01 0.00 50
20260902130206 73 180 0.0 0.0 0.00 0.01 0.00 54
20260902125706 73 180 0.0 0.0 0.00 0.01 0.00 50
20260902125206 73 180 0.0 0.0 0.00 0.01 0.00 49
20260902124706 73 180 0.0 2.0 0.00 0.01 0.00 100
20260902124206 72 180 0.0 3.0 0.00 0.01 0.00 50
20260902123706 72 180 0.0 2.0 0.00 0.01 0.00 53
20260902123206 71 180 0.0 3.0 0.00 0.01 0.00 52
20260902122706 71 180 0.0 1.0 0.00 0.01 0.00 52
20260902122206 71 180 0.0 4.0 0.00 0.01 0.00 52
20260902121706 72 180 0.0 5.0 0.00 0.01 0.00 50
20260902121206 72 180 1.0 5.0 0.00 0.01 0.00 49
20260902120706 73 180 0.0 6.0 0.00 0.01 0.00 47
20260902120206 73 180 2.0 6.0 0.00 0.01 0.00 47
20260902115706 73 180 1.0 6.0 0.00 0.01 0.00 47
20260902115206 73 180 4.0 5.0 0.00 0.01 0.00 46
20260902114706 73 180 0.0 3.0 0.00 0.01 0.00 46
20260902114206 72 180 1.0 6.0 0.00 0.01 0.00 100
20260902113706 73 180 1.0 5.0 0.00 0.01 0.00 46
20260902113206 73 180 3.0 4.0 0.00 0.01 0.00 50
20260902112706 73 180 0.0 3.0 0.00 0.01 0.00 49
20260902112207 72 180 0.0 0.0 0.00 0.01 0.00 49
20260902111706 71 180 0.0 4.0 0.00 0.01 0.00 50
20260902111206 71 180 2.0 8.0 0.00 0.01 0.00 50
20260902110706 71 180 2.0 4.0 0.00 0.01 0.00 51
20260902110206 71 180 3.0 6.0 0.00 0.01 0.00 54
20260902105706 71 180 2.0 3.0 0.00 0.01 0.00 51
20260902105206 71 180 1.0 6.0 0.00 0.01 0.00 51
20260902104706 71 180 2.0 6.0 0.00 0.01 0.00 49
20260902104206 72 180 1.0 6.0 0.00 0.01 0.00 49
20260902103706 72 180 0.0 5.0 0.00 0.01 0.00 50
20260902103206 71 180 2.0 6.0 0.00 0.01 0.00 50
20260902102706 71 180 6.0 7.0 0.00 0.01 0.00 50
20260902102206 72 180 4.0 8.0 0.00 0.01 0.00 49
20260902101706 72 180 0.0 2.0 0.00 0.01 0.00 50
20260902101206 71 180 0.0 6.0 0.00 0.01 0.00 51
20260902100706 70 180 1.0 6.0 0.00 0.01 0.00 50
20260902100206 70 180 3.0 7.0 0.00 0.01 0.00 51
20260902095706 70 180 0.0 3.0 0.00 0.01 0.00 54
20260902095206 70 180 0.0 6.0 0.00 0.01 0.00 54
20260902094706 70 180 6.0 6.0 0.00 0.01 0.00 100
20260902094206 70 180 4.0 6.0 0.00 0.01 0.00 55
20260902093707 70 180 1.0 8.0 0.00 0.01 0.00 56
20260902093207 70 180 2.0 6.0 0.00 0.01 0.00 55
20260902092707 70 180 1.0 3.0 0.00 0.01 0.00 57
20260902092207 70 180 1.0 4.0 0.00 0.01 0.00 57
20260902091707 70 180 0.0 5.0 0.00 0.01 0.00 67
20260902091207 69 180 1.0 6.0 0.00 0.01 0.00 58
20260902090707 69 180 0.0 8.0 0.00 0.01 0.00 63
20260902090207 69 180 0.0 5.0 0.00 0.01 0.00 64
20260902085707 69 180 3.0 7.0 0.00 0.01 0.00 61
20260902085207 69 180 1.0 3.0 0.00 0.01 0.00 65
20260902084707 69 180 3.0 3.0 0.00 0.01 0.01 66
20260902084207 69 180 0.0 6.0 0.00 0.01 0.01 65
20260902083707 69 180 0.0 4.0 0.00 0.01 0.01 70
20260902083207 68 180 0.0 0.0 0.00 0.01 0.01 74
20260902082707 68 180 0.0 4.0 0.00 0.01 0.01 72
20260902082207 67 180 4.0 5.0 0.00 0.01 0.01 74
20260902081707 67 180 0.0 6.0 0.00 0.01 0.01 76
20260902081207 67 180 6.0 8.0 0.00 0.01 0.01 72
20260902080707 67 180 0.0 1.0 0.00 0.01 0.01 77
20260902080207 66 180 1.0 4.0 0.00 0.01 0.01 78
20260902075707 66 180 2.0 9.0 0.00 0.01 0.01 77
20260902075207 66 180 4.0 4.0 0.00 0.01 0.01 84
20260902074707 65 180 0.0 2.0 0.00 0.01 0.01 82
20260902074207 65 180 0.0 1.0 0.00 0.01 0.01 90
20260902073707 64 180 0.0 4.0 0.00 0.01 0.01 93
20260902073207 63 180 0.0 1.0 0.00 0.01 0.01 96
20260902072707 63 180 0.0 0.0 0.00 0.01 0.01 97
20260902072207 63 180 0.0 0.0 0.00 0.01 0.01 98
20260902071707 62 180 0.0 0.0 0.00 0.01 0.01 98
20260902071207 62 180 0.0 0.0 0.00 0.01 0.01 98
20260902070707 60 180 0.0 0.0 0.00 0.01 0.01 100
20260902070207 60 180 0.0 0.0 0.00 0.01 0.01 100
20260902065707 60 180 0.0 0.0 0.00 0.01 0.01 100
20260902065207 59 180 0.0 0.0 0.00 0.01 0.01 100
20260902064707 58 180 0.0 0.0 0.00 0.01 0.01 100
20260902064207 57 180 0.0 0.0 0.00 0.01 0.01 100
20260902063707 57 180 0.0 0.0 0.00 0.01 0.01 100
20260902063207 57 180 0.0 0.0 0.00 0.01 0.01 100
20260902062707 56 180 0.0 0.0 0.00 0.01 0.01 100
20260902062207 55 180 0.0 0.0 0.00 0.01 0.01 100
20260902061707 54 180 0.0 0.0 0.00 0.01 0.01 100
20260902061207 54 180 0.0 0.0 0.00 0.01 0.01 100
20260902060707 53 180 0.0 0.0 0.00 0.01 0.01 100
20260902060207 53 180 0.0 0.0 0.00 0.01 0.01 100
20260902055707 53 180 0.0 0.0 0.00 0.01 0.01 100
20260902055207 52 180 0.0 0.0 0.00 0.01 0.01 100
20260902054707 52 180 0.0 0.0 0.01 0.01 0.01 100
20260902054207 52 180 0.0 0.0 0.01 0.01 0.01 100
20260902053707 51 180 0.0 0.0 0.01 0.01 0.01 100
20260902053207 50 180 0.0 0.0 0.01 0.01 0.01 100
20260902052707 50 180 0.0 0.0 0.01 0.01 0.01 100
20260902052207 49 180 0.0 0.0 0.01 0.01 0.01 100
20260902051707 48 180 0.0 0.0 0.01 0.01 0.01 100
20260902051207 48 180 0.0 0.0 0.01 0.01 0.01 100
20260902050707 47 180 0.0 0.0 0.01 0.01 0.01 100
20260902050207 47 180 0.0 0.0 0.01 0.01 0.01 100
20260902045707 47 180 0.0 0.0 0.01 0.01 0.01 100
20260902045207 46 180 0.0 0.0 0.01 0.01 0.01 100
20260902044707 46 180 0.0 0.0 0.00 0.01 0.00 100
20260902044207 46 180 0.0 0.0 0.00 0.01 0.00 100
20260902043707 46 180 0.0 0.0 0.00 0.01 0.00 100
20260902043207 46 180 0.0 0.0 0.00 0.01 0.00 100
20260902042707 46 180 0.0 0.0 0.00 0.01 0.00 100
20260902042207 46 180 0.0 0.0 0.00 0.01 0.00 100
20260902041707 46 180 0.0 0.0 0.00 0.01 0.00 100
20260902041207 45 180 0.0 0.0 0.00 0.01 0.00 100
20260902040707 46 180 0.0 0.0 0.00 0.01 0.00 100
20260902040207 46 180 0.0 0.0 0.00 0.01 0.00 100
20260902035707 46 180 0.0 0.0 0.00 0.01 0.00 100
20260902035208 46 180 0.0 0.0 0.00 0.01 0.00 100
20260902034707 46 180 0.0 0.0 0.00 0.02 0.00 100
20260902034207 46 180 0.0 0.0 0.00 0.02 0.00 100
20260902033707 46 180 0.0 0.0 0.00 0.02 0.00 100
20260902033207 46 180 0.0 0.0 0.00 0.02 0.00 100
20260902032707 46 180 0.0 0.0 0.00 0.02 0.00 100
20260902032207 46 180 0.0 0.0 0.00 0.02 0.00 100
20260902031707 46 180 0.0 0.0 0.00 0.02 0.00 100
20260902031208 46 180 0.0 0.0 0.00 0.02 0.00 100
20260902030708 46 180 0.0 0.0 0.00 0.02 0.00 100
20260902030208 46 180 0.0 0.0 0.00 0.02 0.00 100
20260902025708 46 180 0.0 0.0 0.00 0.02 0.00 100
20260902025208 47 180 0.0 0.0 0.00 0.02 0.00 100
20260902024708 46 180 0.0 0.0 0.00 0.02 0.00 100
20260902024208 47 180 0.0 0.0 0.00 0.02 0.00 100
20260902023708 47 180 0.0 0.0 0.00 0.02 0.00 100
20260902023208 47 180 0.0 0.0 0.00 0.02 0.00 100
20260902022708 47 180 0.0 0.0 0.00 0.02 0.00 100
20260902022208 47 180 0.0 0.0 0.00 0.02 0.00 100
20260902021708 47 180 0.0 0.0 0.00 0.02 0.00 100
20260902021208 47 180 0.0 0.0 0.00 0.02 0.00 100
20260902020708 47 180 0.0 0.0 0.00 0.02 0.00 100
20260902020208 47 180 0.0 0.0 0.00 0.02 0.00 100
20260902015708 47 180 0.0 0.0 0.00 0.02 0.00 100
20260902015208 47 180 0.0 0.0 0.00 0.02 0.00 100
20260902014708 47 180 0.0 0.0 0.00 0.02 0.00 100
20260902014208 47 180 0.0 0.0 0.00 0.02 0.00 100
20260902013708 47 180 0.0 0.0 0.00 0.02 0.00 100
20260902013208 47 180 0.0 0.0 0.00 0.02 0.00 100
20260902012708 47 180 0.0 0.0 0.00 0.02 0.00 100
20260902012208 47 180 0.0 0.0 0.00 0.02 0.00 100
20260902011708 47 180 0.0 0.0 0.00 0.02 0.00 100
20260902011208 48 180 0.0 0.0 0.00 0.02 0.00 100
20260902010708 48 180 0.0 0.0 0.00 0.02 0.00 100
20260902010208 48 180 0.0 0.0 0.00 0.02 0.00 100
20260902005708 48 180 0.0 0.0 0.00 0.02 0.00 100
20260902005208 48 180 0.0 0.0 0.00 0.02 0.00 100
20260902004708 48 180 0.0 0.0 0.00 0.02 0.00 100
20260902004208 48 180 0.0 0.0 0.00 0.02 0.00 100
20260902003708 48 180 0.0 0.0 0.00 0.02 0.00 100
20260902003208 48 180 0.0 0.0 0.00 0.02 0.00 100
20260902002708 48 180 0.0 0.0 0.00 0.02 0.00 100
20260902002208 48 180 0.0 0.0 0.00 0.02 0.00 100
20260902001708 48 180 0.0 0.0 0.00 0.02 0.00 100
20260902001208 48 180 0.0 0.0 0.00 0.02 0.00 100
20260902000708 48 180 0.0 0.0 0.00 0.02 0.00 100
20260902000208 49 180 0.0 0.0 0.00 0.02 0.00 100
20260901235708 49 180 0.0 0.0 0.00 0.02 0.00 100
20260901235208 49 180 0.0 0.0 0.00 0.02 0.00 100
20260901234708 49 180 0.0 0.0 0.00 0.02 0.00 100
20260901234208 49 180 0.0 0.0 0.00 0.02 0.00 100
20260901233708 49 180 0.0 0.0 0.00 0.02 0.00 100
20260901233208 49 180 0.0 0.0 0.00 0.02 0.00 100
20260901232708 49 180 0.0 0.0 0.00 0.02 0.00 100
20260901232208 50 180 0.0 0.0 0.00 0.02 0.00 100
20260901231708 50 180 0.0 0.0 0.00 0.02 0.00 100
20260901231208 50 180 0.0 0.0 0.00 0.02 0.00 100
20260901230708 50 180 0.0 0.0 0.00 0.02 0.00 100
20260901230208 50 180 0.0 0.0 0.00 0.02 0.00 100
20260901225708 50 180 0.0 0.0 0.00 0.02 0.00 100
20260901225208 50 180 0.0 0.0 0.00 0.02 0.00 100
20260901224708 50 180 0.0 0.0 0.00 0.02 0.00 100
20260901224208 51 180 0.0 0.0 0.00 0.02 0.00 100
20260901223708 51 180 0.0 0.0 0.00 0.02 0.00 100
20260901223208 51 180 0.0 0.0 0.00 0.02 0.00 100
20260901222708 51 180 0.0 0.0 0.00 0.02 0.00 100
20260901222208 51 180 0.0 0.0 0.00 0.02 0.00 100
20260901221708 51 180 0.0 0.0 0.00 0.02 0.00 100
20260901221208 51 180 0.0 0.0 0.00 0.02 0.00 100
20260901220708 51 180 0.0 0.0 0.00 0.02 0.00 100
20260901220208 52 180 0.0 0.0 0.00 0.02 0.00 100
20260901215708 52 180 0.0 0.0 0.00 0.02 0.00 100
20260901215208 52 180 0.0 0.0 0.00 0.02 0.00 100
20260901214708 52 180 0.0 0.0 0.00 0.02 0.00 100
20260901214208 52 180 0.0 0.0 0.00 0.02 0.00 100
20260901213708 52 180 0.0 0.0 0.00 0.02 0.00 100
20260901213208 52 180 0.0 0.0 0.00 0.02 0.00 100
20260901212708 52 180 0.0 0.0 0.00 0.02 0.00 100
20260901212208 53 180 0.0 0.0 0.00 0.02 0.00 100
20260901211708 53 180 0.0 0.0 0.00 0.02 0.00 100
20260901211208 53 180 0.0 0.0 0.00 0.02 0.00 100
20260901210708 53 180 0.0 0.0 0.00 0.02 0.00 100
20260901210208 53 180 0.0 0.0 0.00 0.02 0.00 100
20260901205708 53 180 0.0 0.0 0.00 0.02 0.00 100
20260901205208 53 180 0.0 0.0 0.00 0.02 0.00 100
20260901204708 53 180 0.0 0.0 0.00 0.02 0.00 100
20260901204208 53 180 0.0 0.0 0.00 0.02 0.00 100
20260901203709 53 180 0.0 0.0 0.00 0.02 0.00 100
20260901203209 53 180 0.0 0.0 0.00 0.02 0.00 100
20260901202709 53 180 0.0 0.0 0.00 0.02 0.00 100
20260901202209 53 180 0.0 0.0 0.00 0.02 0.00 100
20260901201709 54 180 0.0 0.0 0.00 0.02 0.00 100
20260901201209 54 180 0.0 0.0 0.00 0.02 0.00 100
20260901200709 54 180 0.0 0.0 0.00 0.02 0.00 100
20260901200209 54 180 0.0 0.0 0.00 0.02 0.00 100
20260901195709 54 180 0.0 0.0 0.00 0.02 0.00 100
20260901195209 54 180 0.0 0.0 0.00 0.02 0.00 100
20260901194709 54 180 0.0 0.0 0.00 0.02 0.00 100
20260901194209 54 180 0.0 0.0 0.00 0.02 0.00 100
20260901193709 55 180 0.0 0.0 0.00 0.02 0.00 100
20260901193209 55 180 0.0 0.0 0.00 0.02 0.00 100
20260901192709 55 180 0.0 0.0 0.00 0.02 0.00 100
20260901192209 55 180 0.0 0.0 0.00 0.02 0.00 100
20260901191709 55 180 0.0 0.0 0.00 0.02 0.00 100
20260901191209 56 180 0.0 0.0 0.00 0.02 0.00 100
20260901190710 56 180 0.0 0.0 0.00 0.02 0.00 99
20260901190209 56 180 0.0 0.0 0.00 0.02 0.00 99
20260901185709 56 180 0.0 0.0 0.00 0.02 0.00 99
20260901185209 56 180 0.0 0.0 0.00 0.02 0.00 99
20260901184709 57 180 0.0 0.0 0.00 0.02 0.00 98
20260901184209 57 180 0.0 0.0 0.00 0.02 0.00 97
20260901183709 57 180 0.0 0.0 0.00 0.02 0.00 97
20260901183209 58 180 0.0 0.0 0.00 0.02 0.00 96
20260901182709 58 180 0.0 0.0 0.00 0.02 0.00 96
20260901182209 58 180 0.0 0.0 0.00 0.02 0.00 95
20260901181709 59 180 0.0 0.0 0.00 0.02 0.00 94
20260901181209 59 180 0.0 0.0 0.00 0.02 0.00 92
20260901180709 60 180 0.0 0.0 0.00 0.02 0.00 90
20260901180209 61 180 0.0 0.0 0.00 0.02 0.00 88